Location: Alvis C Story Elementary School
(33.0968°N, 96.6364°W)
Time: 19:20:44
(UTC+00:00)

Cosmos 1602 - Pass Details

Date: 05 July 2022
Orbit: 508 x 526 km, 82.5° (Epoch: 17 August)

Event Time Altitude Azimuth Distance (km) Brightness Sun altitude
Exits shadow 08:10:53 19° 72° (ENE) 1,273 6.1 -29.3°
Drops below altitude 10° 08:12:52 10° 41° (NE) 1,729 7.2 -29.1°
Sets 08:15:24 0° 25° (NNE) 2,621 8.5 -28.9°
